Location: Saint-Maurice-d�Ard�che
(44.5216°N, 4.4002°E)
Time: 11:54:23
(UTC+00:00)

Cosmos 1943 - Pass Details

Date: 30 March 2020
Orbit: 832 x 851 km, 71.0° (Epoch: 26 May)

Event Time Altitude Azimuth Distance (km) Brightness Sun altitude
Rises 19:54:50 0° 183° (S) 3,372 6.1 -19.0°
Enters shadow 19:54:56 - 183° (S) 3,333 6.1 -19.0°
Exits shadow 20:00:50 33° 149° (SSE) 1,381 3.8 -20.0°
Maximum altitude 20:02:37 43° 107° (ESE) 1,175 3.5 -20.3°
Drops below altitude 10° 20:07:55 10° 38° (NE) 2,474 5.5 -21.1°
Sets 20:10:29 0° 32° (NNE) 3,416 6.3 -21.5°
